Weather History for EICK - October, 2012

Change the Weather History Date:

Wednesday, October 24, 2012

  Actual Average Record
Temperature  
Mean Temperature 52 °F -  
Max Temperature 54 °F 51 °F 59 °F (1998)
Min Temperature 51 °F 41 °F 35 °F (2003)
Degree Days  
Heating Degree Days 12    
Growing Degree Days 2 (Base 50)    
Moisture  
Dew Point 53 °F    
Average Humidity 98    
Maximum Humidity 100    
Minimum Humidity 94    
Precipitation  
Precipitation 0.08 in 0.15 in - ()
Sea Level Pressure  
Sea Level Pressure 30.12 in    
Wind  
Wind Speed 9 mph ()    
Max Wind Speed 15 mph    
Max Gust Speed -    
Visibility 3.7 miles    
Events Rain    
Averages and records for this station are not official NWS values.
T = Trace of Precipitation, MM = Missing Value Source: Averaged Metar Reports

Daily Weather History Graph

Daily Weather History Graph

Search for Another Location

Airport or City:

Trip Planner

Search our weather history database for the weather conditions in past years. The results will help you decide how hot, cold, wet, or windy it might be!

Date:

Astronomy

Oct. 24, 2012 Rise Set
Actual Time 8:14 AM IST 6:20 PM IST
Civil Twilight 7:40 AM IST 6:55 PM IST
Nautical Twilight 7:00 AM IST 7:34 PM IST
Astronomical Twilight 6:21 AM IST 8:13 PM IST
Moon 4:00 PM IST (10/24) 2:19 AM IST (10/24)
Length of Visible Light 11h 15m
Length of Day
10h 05m
Waxing Gibbous, 74% of the Moon is Illuminated
Oct 24
Waxing Gibbous
Oct 29
Full
Nov 7
Last Quarter
Nov 13
New
Nov 20
First Quarter

Hourly Weather History & Observations

Time (IST) Temp. Dew Point Humidity Pressure Visibility Wind Dir Wind Speed Gust Speed Precip Events Conditions
12:00 AM 53.6 °F 53.6 °F 100% 30.24 in 4.3 mi North 9.2 mph - N/A   Mostly Cloudy
12:30 AM 53.6 °F 53.6 °F 100% 30.24 in 4.3 mi North 8.1 mph - N/A   Mostly Cloudy
1:00 AM 53.6 °F 53.6 °F 100% 30.24 in 5.0 mi North 6.9 mph - N/A   Mostly Cloudy
1:30 AM 53.6 °F 53.6 °F 100% 30.24 in 4.3 mi North 9.2 mph - N/A   Overcast
2:00 AM 53.6 °F 53.6 °F 100% 30.21 in 4.3 mi NNE 6.9 mph - N/A   Overcast
2:30 AM 53.6 °F 53.6 °F 100% 30.21 in 5.0 mi NNE 8.1 mph - N/A   Overcast
3:00 AM 53.6 °F 51.8 °F 94% 30.21 in 5.0 mi North 10.4 mph - N/A   Overcast
3:30 AM 53.6 °F 51.8 °F 94% 30.18 in 5.0 mi North 9.2 mph - N/A   Mostly Cloudy
4:00 AM 53.6 °F 51.8 °F 94% 30.18 in 5.0 mi North 6.9 mph - N/A   Overcast
4:30 AM 53.6 °F 51.8 °F 94% 30.18 in 5.0 mi North 8.1 mph - N/A   Mostly Cloudy
5:00 AM 53.6 °F 51.8 °F 94% 30.18 in 5.0 mi North 10.4 mph - N/A   Overcast
5:30 AM 53.6 °F 51.8 °F 94% 30.18 in 5.0 mi North 9.2 mph - N/A   Mostly Cloudy
6:00 AM 53.6 °F 51.8 °F 94% 30.18 in 5.6 mi North 9.2 mph - N/A   Mostly Cloudy
6:30 AM 53.6 °F 51.8 °F 94% 30.15 in 5.6 mi North 8.1 mph - N/A   Overcast
7:00 AM 53.6 °F 51.8 °F 94% 30.15 in 5.0 mi North 9.2 mph - N/A   Overcast
7:30 AM 53.6 °F 51.8 °F 94% 30.15 in 5.6 mi NNE 10.4 mph - N/A   Mostly Cloudy
8:00 AM 53.6 °F 51.8 °F 94% 30.15 in 4.3 mi NNE 10.4 mph - N/A   Mostly Cloudy
8:30 AM 53.6 °F 51.8 °F 94% 30.15 in 3.7 mi NNE 11.5 mph - N/A   Light Drizzle
9:00 AM 53.6 °F 51.8 °F 94% 30.15 in 2.2 mi NNE 12.7 mph - N/A   Light Drizzle
9:30 AM 51.8 °F 51.8 °F 100% 30.15 in 1.4 mi NNE 11.5 mph - N/A   Light Drizzle
10:00 AM 51.8 °F 51.8 °F 100% 30.15 in 1.6 mi NNE 12.7 mph - N/A   Light Drizzle
10:30 AM 53.6 °F 53.6 °F 100% 30.15 in 6.2 mi NNE 11.5 mph - N/A   Mostly Cloudy
11:00 AM 53.6 °F 53.6 °F 100% 30.15 in 6.2 mi NNE 10.4 mph - N/A   Mostly Cloudy
11:30 AM 53.6 °F 53.6 °F 100% 30.12 in 3.7 mi NNE 11.5 mph - N/A   Light Drizzle
12:00 PM 53.6 °F 53.6 °F 100% 30.12 in 4.3 mi NNE 9.2 mph - N/A   Light Drizzle
12:30 PM 53.6 °F 53.6 °F 100% 30.12 in 2.5 mi NNE 11.5 mph - N/A Rain Light Rain
1:00 PM 53 °F 53 °F 100% 30.14 in 2 mi NE 11.2 mph - - Rain Light Rain
1:00 PM 53.6 °F 53.6 °F 100% 30.12 in 1.6 mi NE 11.5 mph - N/A Rain Light Rain
1:30 PM 53.6 °F 53.6 °F 100% 30.09 in 1.3 mi NE 11.5 mph - N/A Rain Light Rain
2:00 PM 53.6 °F 53.6 °F 100% 30.09 in 2.5 mi NE 9.2 mph - N/A Rain Light Rain
2:30 PM 53.6 °F 53.6 °F 100% 30.09 in 1.9 mi NE 10.4 mph - N/A Rain Light Rain
3:00 PM 53.6 °F 53.6 °F 100% 30.06 in 2.2 mi NE 11.5 mph - N/A Rain Light Rain
3:30 PM 53.6 °F 53.6 °F 100% 30.06 in 2.5 mi NE 10.4 mph - N/A Rain Light Rain
4:00 PM 53.6 °F 53.6 °F 100% 30.06 in 1.9 mi NE 12.7 mph - N/A Rain Light Rain
4:30 PM 53.6 °F 53.6 °F 100% 30.04 in 2.2 mi NE 11.5 mph - N/A Rain Light Rain
5:00 PM 53.6 °F 53.6 °F 100% 30.04 in 1.1 mi NE 12.7 mph - N/A Rain Light Rain
5:30 PM 53.6 °F 53.6 °F 100% 30.04 in 1.0 mi NE 10.4 mph - N/A Rain Light Rain
6:00 PM 53.6 °F 53.6 °F 100% 30.04 in 1.3 mi ENE 11.5 mph - N/A Rain Light Rain
6:30 PM 53.6 °F 53.6 °F 100% 30.04 in 1.6 mi NE 12.7 mph - N/A Rain Light Rain
7:00 PM 54 °F 54 °F 98% 30.06 in 4 mi NE 11.2 mph - - Rain Light Rain
7:00 PM 53.6 °F 53.6 °F 100% 30.04 in 3.7 mi NE 10.4 mph - N/A Rain Light Rain
7:30 PM 53.6 °F 53.6 °F 100% 30.04 in 4.3 mi NE 11.5 mph - N/A   Mostly Cloudy
8:00 PM 53.6 °F 53.6 °F 100% 30.04 in 5.6 mi NE 12.7 mph - N/A   Light Drizzle
8:30 PM 53.6 °F 53.6 °F 100% 30.04 in 5.6 mi NE 11.5 mph - N/A   Mostly Cloudy
9:00 PM 53.6 °F 51.8 °F 94% 30.04 in 5.6 mi ENE 13.8 mph - N/A   Mostly Cloudy
9:30 PM 53.6 °F 53.6 °F 100% 30.06 in 4.3 mi NE 15.0 mph - N/A   Mostly Cloudy
10:00 PM 53.6 °F 53.6 °F 100% 30.04 in 3.1 mi NE 13.8 mph - N/A   Light Drizzle
10:30 PM 53.6 °F 53.6 °F 100% 30.04 in 2.8 mi NE 12.7 mph - N/A   Light Drizzle
11:00 PM 53.6 °F 53.6 °F 100% 30.04 in 3.1 mi NE 13.8 mph - N/A   Light Drizzle
11:30 PM 53.6 °F 53.6 °F 100% 30.04 in 2.8 mi NE 12.7 mph - N/A   Light Drizzle